Volver al catálogo

RADUGA 9

ActivoComunicacionesGEO
NORAD 12618·PAYLOAD·🇷🇺 Russia

Lanzado Jul 30, 1981 desde Baikonur Cosmodrome

Loading…

TLE

ActualizadoSource: Space-Track

Época: Sep 14, 2026, 03:45 UTC

1 12618U 81069A   26257.15660378  .00000119  00000-0  00000-0 0  9991
2 12618   6.3880 292.8443 0001668 240.7858 282.0928  1.00215910 48239

Sigue RADUGA 9 en tiempo real con AllMySat

Download on the App Store